Wolf Creek, OR

6:44 AM PST on February 06, 2016 (GMT -0800)
Sexton Summit

Weather History for KSXT - February, 2013

Change the Weather History Date:

Wednesday, February 27, 2013

  Actual Average Record
Temperature  
Mean Temperature 39 °F -  
Max Temperature 44 °F 38 °F 46 °F (2014)
Min Temperature 34 °F 29 °F 34 °F (2015)
Degree Days  
Heating Degree Days 26    
Moisture  
Dew Point 31 °F    
Average Humidity 76    
Maximum Humidity 100    
Minimum Humidity 42    
Precipitation  
Precipitation 0.06 in - - ()
Sea Level Pressure  
Sea Level Pressure 30.27 in    
Wind  
Wind Speed 10 mph (South)    
Max Wind Speed 20 mph    
Max Gust Speed 32 mph    
Visibility 6 miles    
Events Fog , Rain    
Averages and records for this station are not official NWS values.
T = Trace of Precipitation, MM = Missing Value Source: NWS Daily Summary

Daily Weather History Graph

Daily Weather History Graph

Search for Another Location

Airport or City:

Trip Planner

Search our weather history database for the weather conditions in past years. The results will help you decide how hot, cold, wet, or windy it might be!

Date:

Astronomy

Feb. 27, 2013 Rise Set
Actual Time 6:51 AM PST 6:01 PM PST
Civil Twilight 6:23 AM PST 6:29 PM PST
Nautical Twilight 5:50 AM PST 7:02 PM PST
Astronomical Twilight 5:18 AM PST 7:34 PM PST
Moon 8:33 PM PST (2/27) 7:26 AM PST (2/27)
Length of Visible Light 12h 06m
Length of Day
11h 09m
Waning Gibbous, 96% of the Moon is Illuminated
Feb 27
Waning Gibbous
Mar 4
Last Quarter
Mar 11
New
Mar 19
First Quarter
Mar 27
Full

Hourly Weather History & Observations

Time (PST) Temp. Windchill Dew Point Humidity Pressure Visibility Wind Dir Wind Speed Gust Speed Precip Events Conditions
12:56 AM 37.0 °F 32.4 °F 19.9 °F 50% 30.27 in 10.0 mi SW 5.8 mph - N/A   Mostly Cloudy
1:56 AM 36.0 °F 30.3 °F 23.0 °F 59% 30.27 in 10.0 mi SSW 6.9 mph - N/A   Scattered Clouds
2:56 AM 35.1 °F 28.6 °F 24.1 °F 64% 30.27 in 10.0 mi South 8.1 mph - N/A   Clear
3:56 AM 34.0 °F 27.2 °F 24.1 °F 67% 30.27 in 10.0 mi South 8.1 mph - N/A   Clear
4:56 AM 35.1 °F 26.9 °F 23.0 °F 61% 30.27 in 10.0 mi South 11.5 mph - N/A   Mostly Cloudy
5:56 AM 35.1 °F 27.4 °F 23.0 °F 61% 30.28 in 10.0 mi SSE 10.4 mph - N/A   Overcast
6:56 AM 35.1 °F 26.4 °F 21.9 °F 59% 30.28 in 10.0 mi South 12.7 mph - N/A   Overcast
7:14 AM 35.6 °F 28.0 °F 23.0 °F 60% 30.23 in 10.0 mi South 10.4 mph - N/A   Overcast
7:56 AM 36.0 °F 28.0 °F 21.0 °F 55% 30.30 in 10.0 mi South 11.5 mph - N/A   Overcast
8:51 AM 37.4 °F 30.3 °F 17.6 °F 45% 30.26 in 10.0 mi South 10.4 mph - N/A   Overcast
8:56 AM 37.0 °F 30.4 °F 17.1 °F 44% 30.31 in 10.0 mi SSW 9.2 mph - N/A   Overcast
9:54 AM 37.4 °F 30.3 °F 17.6 °F 45% 30.27 in 10.0 mi South 10.4 mph - N/A   Overcast
9:56 AM 37.9 °F 30.9 °F 19.0 °F 47% 30.31 in 10.0 mi South 10.4 mph - N/A   Overcast
10:56 AM 43.0 °F 37.2 °F 21.0 °F 42% 30.29 in 10.0 mi South 10.4 mph - N/A   Scattered Clouds
11:56 AM 44.1 °F 39.5 °F 25.0 °F 47% 30.29 in 10.0 mi SSW 8.1 mph 16.1 mph N/A   Overcast
12:56 PM 42.1 °F 36.1 °F 28.0 °F 58% 30.30 in 10.0 mi SW 10.4 mph 18.4 mph N/A   Overcast
1:56 PM 44.1 °F 42.5 °F 28.9 °F 55% 30.29 in 10.0 mi Variable 3.5 mph - N/A   Overcast
2:56 PM 44.1 °F - 30.9 °F 60% 30.29 in 10.0 mi Calm Calm - N/A   Overcast
3:40 PM 42.8 °F 39.3 °F 30.2 °F 61% 30.26 in 10.0 mi SSW 5.8 mph - N/A   Overcast
3:56 PM 43.0 °F 39.5 °F 32.0 °F 65% 30.30 in 10.0 mi Variable 5.8 mph - N/A   Mostly Cloudy
4:56 PM 39.9 °F 33.9 °F 34.0 °F 79% 30.30 in 10.0 mi SSW 9.2 mph - 0.00 in Rain Light Rain
5:25 PM 39.2 °F 32.5 °F 35.6 °F 87% 30.25 in 5.0 mi South 10.4 mph - 0.01 in Rain Light Rain
5:56 PM 39.0 °F 31.8 °F 37.0 °F 93% 30.30 in 7.0 mi South 11.5 mph - 0.02 in Rain Light Rain
6:25 PM 39.2 °F 32.0 °F 37.4 °F 93% 30.24 in 2.0 mi South 11.5 mph - 0.02 in Rain Light Rain
6:27 PM 39.2 °F 31.2 °F 37.4 °F 93% 30.24 in 1.2 mi South 13.8 mph - 0.02 in Rain Light Rain
6:32 PM 39.2 °F 31.6 °F 37.4 °F 93% 30.24 in 0.5 mi South 12.7 mph - 0.02 in Fog , Rain Light Rain
6:39 PM 39.2 °F 31.6 °F 37.4 °F 93% 30.24 in 0.2 mi South 12.7 mph - 0.03 in Fog , Rain Light Rain
6:48 PM 39.2 °F 32.0 °F 37.4 °F 93% 30.25 in 0.2 mi South 11.5 mph 18.4 mph 0.03 in Fog , Rain Light Rain
6:56 PM 39.0 °F 32.3 °F 37.9 °F 96% 30.30 in 0.2 mi South 10.4 mph - 0.03 in Fog Fog
7:32 PM 39.2 °F 31.6 °F 37.4 °F 93% 30.25 in 0.2 mi South 12.7 mph 19.6 mph 0.00 in Fog , Rain Light Rain
7:43 PM 39.2 °F 32.0 °F 37.4 °F 93% 30.25 in 0.2 mi South 11.5 mph 18.4 mph 0.00 in Fog , Rain Light Rain
7:56 PM 39.0 °F 31.8 °F 37.9 °F 96% 30.29 in 0.2 mi South 11.5 mph 20.7 mph 0.00 in Fog , Rain Light Rain
8:56 PM 39.0 °F 30.6 °F 37.9 °F 96% 30.29 in 0.2 mi South 15.0 mph 23.0 mph 0.01 in Fog , Rain Light Rain
9:56 PM 39.0 °F 30.3 °F 37.9 °F 96% 30.29 in 0.2 mi South 16.1 mph 27.6 mph 0.00 in Fog , Rain Light Rain
10:20 PM 39.2 °F 30.5 °F 39.2 °F 100% 30.25 in 0.2 mi South 16.1 mph 26.5 mph 0.00 in Fog Fog
10:31 PM 39.2 °F 29.6 °F 39.2 °F 100% 30.25 in 0.8 mi South 19.6 mph 29.9 mph 0.00 in   Mist
10:45 PM 39.2 °F 30.2 °F 39.2 °F 100% 30.26 in 1.5 mi South 17.3 mph 26.5 mph 0.00 in   Overcast
10:52 PM 39.2 °F 30.8 °F 39.2 °F 100% 30.25 in 0.8 mi South 15.0 mph 27.6 mph 0.00 in   Overcast
10:56 PM 39.0 °F 29.9 °F 39.0 °F 100% 30.27 in 0.5 mi South 17.3 mph 27.6 mph 0.00 in Fog Fog
11:04 PM 39.2 °F 29.6 °F 39.2 °F 100% 30.25 in 0.2 mi South 19.6 mph 32.2 mph N/A Fog Fog
11:22 PM 39.2 °F 30.2 °F 39.2 °F 100% 30.25 in 0.2 mi South 17.3 mph 28.8 mph N/A Fog Fog
11:56 PM 39.0 °F 29.3 °F 39.0 °F 100% 30.26 in 0.2 mi South 19.6 mph 26.5 mph N/A Fog Fog